Regional Weather Roundup
Issued by NWS

Home | Current Version | Previous Version | Text Only | Print | Product List | Glossary On
Versions: 1 2 3 4 5 6 7 8 9 10 11 12 13 14 15 16 17 18 19 20 21 22 23 24 25 26 27 28 29 30 31 32 33 34 35 36 37 38 39 40 41 42 43 44 45 46 47 48 49 50
000
ASUS43 KIND 051309
RWRIN

WEATHER ROUNDUP FOR INDIANA
NATIONAL WEATHER SERVICE INDIANAPOLIS IN
800 AM EST THU MAR 05 2015

NOTE: "FAIR" INDICATES FEW OR NO CLOUDS BELOW 12,000 FEET WITH NO
SIGNIFICANT WEATHER AND/OR OBSTRUCTIONS TO VISIBILITY.

* - STATION DOES NOT REPORT WEATHER SUCH AS PRECIPITATION OR FOG.

+ - STATION NOT QUALITY CONTROLLED BY THE NATIONAL WEATHER SERVICE.
    USE DATA WITH CAUTION...ESPECIALLY DEWPOINT AND RELATIVE
    HUMIDITY OBSERVATIONS.

INZ001>003-010>013-019-020-051400-
NORTHWEST INDIANA

CITY           SKY/WX    TMP DP  RH WIND       PRES   REMARKS
GARY /AIRPORT/ MOCLDY    12  -4  48 W12       30.40S WCI  -2
KNOX *+          N/A      9  -4  56 CALM      30.37R
LA PORTE +     LGT SNOW  13   9  85 CALM      30.36S
MICHIGAN CITY+ CLOUDY    18   3  53 CALM      30.37S
MONTICELLO +   MOCLDY     8   2  76 NW5       30.36F WCI   0
RENSSELAER +   MOCLDY    10   5  79 NW5       30.39S WCI   2
VALPARAISO     MOCLDY    14   3  61 NW3       30.37S

$$

LMZ046-743>745-051400-
SOUTHERN LAKE MICHIGAN

STATION/POSITION TIME  TEMP WIND        PRES
                       AIR  DIR/SP/G
                 (UTC) (F)  (DEG/KT/KT) (MB)
MICHIGAN CITY    1300   15  290/  9/ 11   N/A

$$

INZ004-005-014>016-021>024-051400-
NORTH CENTRAL INDIANA

CITY           SKY/WX    TMP DP  RH WIND       PRES   REMARKS
ELKHART        MOCLDY     7   0  72 CALM      30.37S
GOSHEN         MOCLDY     7   2  80 CALM      30.36R
LOGANSPORT +   MOCLDY    12   5  73 N5        30.36F WCI   4
PERU/GRISSOM   PTCLDY    13   5  70 N3        30.32S
ROCHESTER +    MOCLDY    18   9  68 NE3       30.35F
SOUTH BEND     CLOUDY    12   5  73 E3        30.36F
WARSAW +       MOCLDY    12   3  67 CALM      30.35R

$$

INZ006>009-017-018-025>027-051400-
NORTHEAST INDIANA

CITY           SKY/WX    TMP DP  RH WIND       PRES   REMARKS
ANGOLA *+      CLEAR      3 -17  39 CALM      30.35R
AUBURN +       MOCLDY    12   0  57 CALM      30.37R
FORT WAYNE     MOCLDY    12   2  64 N6        30.35F WCI   3
HUNTINGTON +   MOCLDY    13  -2  50 N3        30.34F

$$

INZ028-029-035-036-043>045-051>053-051400-
WEST CENTRAL INDIANA

CITY           SKY/WX    TMP DP  RH WIND       PRES   REMARKS
CRAWFORDSVL +  MOCLDY     9  -3  57 NW8       30.35S WCI  -3
GREENCASTLE +  MOCLDY    14   1  57 N7        30.35R WCI   4
LAFAYETTE      MOCLDY     8   0  69 NW7       30.38S WCI  -3
TERRE HAUTE    MOCLDY    13   2  61 NW10      30.39S WCI   0

$$

INZ030>032-037>040-046>048-054>057-064-065-051400-
CENTRAL INDIANA

CITY           SKY/WX    TMP DP  RH WIND       PRES   REMARKS
CP ATTERBURY + CLOUDY    19  10  68 N10       30.33F WCI   8
COLUMBUS       PTCLDY    18   9  68 N9        30.30F WCI   6
FISHERS *+     CLOUDY    14   9  79 N5        30.34  WCI   6
FRANKFORT +    MOCLDY    12   4  70 NW7       30.35F WCI   1
GREENWOOD *+   CLOUDY    18   3  53 N8        30.33F WCI   7
INDIANAPOLIS   CLOUDY    16   5  62 N12       30.32S WCI   3
-EAGLE CREEK   CLOUDY    15   5  64 N7        30.32F WCI   5
KOKOMO *+        N/A    N/A N/A N/A MISG        N/A
MARION +       PTCLDY    14   4  63 NE8       30.31F WCI   3
MT COMFORT *+  CLOUDY    16   1  53 N12       30.32F WCI   3
SHELBYVILLE    CLOUDY    19   7  59 N13       30.31F WCI   6
ZIONSVILLE +   MOCLDY    14   5  66 N9        30.31F WCI   2

$$

INZ033-034-041-042-049-050-058-059-051400-
EAST CENTRAL INDIANA

CITY           SKY/WX    TMP DP  RH WIND       PRES   REMARKS
MUNCIE         MOCLDY    16   6  65 NE10      30.29F WCI   4

$$

INZ060-061-067>069-081>083-085>088-051400-
SOUTHWEST INDIANA

CITY           SKY/WX    TMP DP  RH WIND       PRES   REMARKS
EVANSVILLE     MOCLDY    20   8  60 NW7       30.43R WCI  11
HUNTINGBURG *+ CLOUDY    18   7  62 N8        30.38R WCI   7
WASHINGTON +   CLOUDY    18   3  53 N7        30.40R WCI   8

$$

INZ062-063-066-070>080-084-089>092-051400-
SOUTH CENTRAL AND SOUTHEAST INDIANA

CITY           SKY/WX    TMP DP  RH WIND       PRES   REMARKS
BEDFORD +      CLOUDY    18   9  68 NW5       30.35R WCI  11
BLOOMINGTON    MOCLDY    16   6  65 N8        30.34R WCI   5
NORTH VERNON + CLOUDY    21   9  58 N7        30.30F WCI  13
SEYMOUR +      CLOUDY    21   9  58 N10       30.32F WCI  10

$$




USA.gov is the U.S. government's official web portal to all federal, state and local government web resources and services.